Home   Weather   Lexington-Fayette   Past weeks

Flag for USA Past Weather in Lexington-Fayette, Kentucky, USA — Yesterday and Last 2 Weeks

Now
58 °F

Light rain. Mostly cloudy.


Feels Like: 55 °F
Forecast: 53 / 60 °F
Wind: 14 mph from South

Location: Blue Grass Airport

Current Time: Jan 17, 2017 at 6:16:30 am

Latest Report: Jan 17, 2017 at 5:28 am


Visibility: 7 mi

Pressure: 29.97 "Hg

Humidity: 90%

Dew Point: 55 °F

Location of Lexington-FayetteLocation

Past Weather in Lexington-Fayette — Graph

°F

Lexington-Fayette Temperature Yesterday

Maximum temperature yesterday: 62 °F (at 2:54 pm)
Minimum temperature yesterday: 41 °F (at 12:54 am)
Average temperature yesterday: 51 °F

High & Low Weather Summary for the Past Weeks

 TemperatureHumidityPressure
High67 °F (Jan 12, 3:39 pm)97% (Jan 2, 8:54 am)30.80 "Hg (Jan 2, 8:54 am)
Low5 °F (Jan 7, 6:54 am)38% (Jan 8, 5:54 pm)29.67 "Hg (Jan 3, 2:54 pm)
Average39 °F79%30.21 "Hg
* Reported Jan 2 5:54 am — Jan 17 5:16 am, Lexington-Fayette, Weather by CustomWeather, © 2017

Note: Actual official high and low records may vary slightly from our data, if they occured in-between our weather recording intervals... More about our weather records

Advertising

Lexington-Fayette Weather History for the Previous 24 Hours

Scroll right to see more
 ConditionsComfort  
Time TempWeatherWind HumidityBarometerVisibility
5:16 am
Tue, Jan 17
58 °FOvercast.15 mph90%29.97 "Hg10 mi
4:54 am58 °FMostly cloudy.13 mph90%29.96 "Hg10 mi
4:42 am58 °FLight rain. Mostly cloudy.14 mph90%29.98 "Hg7 mi
4:22 am58 °FHeavy rain. Fog.17 mph90%29.98 "Hg3 mi
3:54 am58 °FRain. Fog.17 mph90%29.99 "Hg5 mi
3:25 am57 °FLight rain. Fog.14 mph93%30.01 "Hg3 mi
3:22 am57 °FRain. Fog.13 mph93%30.01 "Hg2 mi
3:03 am57 °FRain. Fog.10 mph93%30.03 "Hg3 mi
2:54 am57 °FHeavy rain. Fog.14 mph93%30.02 "Hg2 mi
1:54 am57 °FRain. Fog.15 mph90%30.02 "Hg4 mi
12:54 am58 °FLight rain. Mostly cloudy.8 mph84%30.05 "Hg7 mi
11:54 pm
Mon, Jan 16
59 °FMostly cloudy.10 mph78%30.06 "Hg10 mi
10:54 pm59 °FMostly cloudy.14 mph78%30.06 "Hg10 mi
9:54 pm58 °FOvercast.9 mph81%30.09 "Hg10 mi
8:54 pm58 °FOvercast.8 mph81%30.11 "Hg10 mi
7:54 pm58 °FLight rain. Overcast.5 mph84%30.14 "Hg10 mi
6:54 pm58 °FLight rain. Overcast.6 mph84%30.15 "Hg10 mi
5:54 pm61 °FOvercast.6 mph72%30.14 "Hg10 mi
4:54 pm61 °FOvercast.5 mph78%30.15 "Hg10 mi
3:54 pm60 °FOvercast.3 mph78%30.16 "Hg10 mi
2:54 pm62 °FPartly sunny.9 mph73%30.16 "Hg10 mi
1:54 pm60 °FPassing clouds.6 mph75%30.19 "Hg10 mi
12:54 pm55 °FOvercast.6 mph83%30.22 "Hg10 mi
11:54 am51 °FMostly cloudy.5 mph89%30.26 "Hg10 mi
11:33 am51 °FMore clouds than sun.6 mph89%30.26 "Hg10 mi
10:54 am50 °FPartly sunny.6 mph86%30.28 "Hg10 mi
9:54 am46 °FScattered clouds.7 mph89%30.29 "Hg10 mi
8:54 am44 °FMore clouds than sun.5 mph93%30.29 "Hg9 mi
7:54 am43 °FMostly cloudy.5 mph89%30.27 "Hg7 mi
7:38 am43 °FLow clouds.6 mph89%30.27 "Hg8 mi
6:54 am43 °FLow clouds.5 mph89%30.29 "Hg9 mi
Weather by CustomWeather, © 2017

See weather overviewHow to use our weather pages